AirNav   ProFlight Series 2 Aviation Headset
 
 636 users online  

16G Seneca County Airport
Tiffin, Ohio, USA

GOING TO TIFFIN?


FAA INFORMATION EFFECTIVE 13 AUGUST 2020

Location

FAA Identifier: 16G
Lat/Long: 41-05-38.6000N 083-12-45.0000W
41-05.643333N 083-12.750000W
41.0940556,-83.2125000
(estimated)
Elevation: 785.9 ft. / 239.5 m (surveyed)
Variation: 05W (1985)
From city: 2 miles SW of TIFFIN, OH
Time zone: UTC -4 (UTC -5 during Standard Time)
Zip code: 44883

Airport Operations

Airport use: Open to the public
Control tower: no
ARTCC: CLEVELAND CENTER
FSS: CLEVELAND FLIGHT SERVICE STATION
NOTAMs facility: CLE (NOTAM-D service available)
Attendance: 0800-DUSK
Wind indicator: lighted
Segmented circle: yes
Lights: ACTVT MIRL RY 06/24; REIL & PAPI RYS O6 & 24 - CTAF.
Beacon: white-green (lighted land airport)
Operates sunset to sunrise.

Airport Communications

CTAF/UNICOM: 123.0
WX AWOS-3: 127.175 (419-443-1043)
TOLEDO APPROACH: 120.8
TOLEDO DEPARTURE: 120.8
WX AWOS-3 at FZI (10 nm NW): 124.625 (419-436-0053)
WX AWOS-3 at S24 (14 nm NE): 119.575 (419-547-6932)

Nearby radio navigation aids

VOR radial/distance  VOR name  Freq  Var
FBCr073/26.0FLAG CITY VORTAC108.2002W
BUDr352/(29.4)BUCKEYE VOR109.8005W
MFDr299/31.2MANSFIELD VORTAC108.8003W

 
NDB name  Hdg/Dist  Freq  Var  ID
TIFFINat field26905WTII - .. ..
PORT CLINTON218/29.842307WPCW .--. -.-. .--

Airport Services

Fuel available: 100LL JET-A
FUEL AVBL 24 HRS WITH CREDIT CARD.
Parking: hangars and tiedowns
Airframe service: MAJOR
Powerplant service: MAJOR
Bottled oxygen: HIGH
Bulk oxygen: HIGH/LOW

Runway Information

Runway 6/24

Dimensions: 4000 x 75 ft. / 1219 x 23 m
Surface: asphalt, in good condition
Runway edge lights: medium intensity
RUNWAY 6  RUNWAY 24
Latitude: 41-05.461090N41-05.824897N
Longitude: 083-13.113030W083-12.387342W
Elevation: 785.9 ft.781.1 ft.
Traffic pattern: leftleft
Runway heading: 061 magnetic, 056 true241 magnetic, 236 true
Markings: nonprecision, in good conditionnonprecision, in good condition
Visual slope indicator: 4-light PAPI on left (3.00 degrees glide path)
PAPI UNUSBL BYD 5 DEG L OF CNTRLN.
4-light PAPI on left (3.00 degrees glide path)
UNUSBL BYD 4 DEG LEFT OF CRS & 8 DEG RIGHT OF CRS.
Runway end identifier lights: yesyes
Touchdown point: yes, no lightsyes, no lights
Obstructions: 67 ft. trees, 2642 ft. from runway, 36:1 slope to clear61 ft. trees, 598 ft. from runway, 298 ft. left of centerline, 6:1 slope to clear
5.5 FT ELEC BOX 100 FT FROM THLD 195 FT LEFT.

Airport Ownership and Management from official FAA records

Ownership: Publicly-owned
Owner: SENECA COUNTY COMSN
81 JEFFERSON ST
TIFFIN, OH 44883
Phone 419-447-4550
Manager: BRAD NEWMAN
1778 W. ST. RT 224
TIFFIN, OH 44883
Phone 419-447-4263

Airport Operational Statistics

Aircraft based on the field: 36
Single engine airplanes: 25
Multi engine airplanes: 10
Jet airplanes: 1
    
Aircraft operations: avg 165/day *
68% local general aviation
23% transient general aviation
8% air taxi
<1% military
* for 12-month period ending 04 October 2018

Additional Remarks

CREW CAR AND RENTAL CARS AVBL ON THE FLD.
FOR CD CTC TOLEDO APCH AT 419-865-1495

Instrument Procedures

NOTE: All procedures below are presented as PDF files. If you need a reader for these files, you should download the free Adobe Reader.

NOT FOR NAVIGATION. Please procure official charts for flight.
FAA instrument procedures published for use from 13 August 2020 at 0901Z to 10 September 2020 at 0900Z.

 
IAPs - Instrument Approach Procedures
RNAV (GPS) RWY 06   download (204KB)
RNAV (GPS) RWY 24   download (221KB)
VOR RWY 06   download (208KB)
NDB RWY 24   download (182KB)
NOTE: Special Take-Off Minimums/Departure Procedures apply   download (164KB)

Other nearby airports with instrument procedures:

KFZI - Fostoria Metropolitan Airport (10 nm NW)
56D - Wyandot County Airport (13 nm S)
S24 - Sandusky County Regional Airport (14 nm NE)
14G - Fremont Airport (15 nm N)
KFDY - Findlay Airport (21 nm W)
 
Loc | Ops | Rwys | IFR | FBO | Links
Com | Nav | Svcs | Stats | Notes
Area around 16G (Seneca County Airport)
 
Road maps at: MapQuest Bing Google
 
Aerial photo
WARNING: Photo may not be current or correct
Aerial photo of 16G (Seneca County Airport)
Do you have a better or more recent aerial photo of Seneca County Airport that you would like to share? If so, please send us your photo.

 
Sectional chart

 
Airport distance calculator
Flying to Seneca County Airport? Find the distance to fly.

From to 16G

Sunrise and sunset
Times for 14-Aug-2020
 Local
(UTC-4)
 Zulu
(UTC)
Morning civil twilight06:1410:14
Sunrise06:4310:43
Sunset20:3100:31
Evening civil twilight21:0101:01

Current date and time
Zulu (UTC)  14-Aug-2020 11:08:33
Local (UTC-4)  14-Aug-2020 07:08:33
 
METAR
KFDY 
21nm W 
141053Z AUTO 05004KT 10SM CLR 23/19 A2998 RMK AO2 SLP141 T02280194
KMNN 
29nm S 
141053Z AUTO 09004KT 9SM CLR 19/18 A2999 RMK AO2 SLP148 T01940178 $
KPCW 
30nm NE 
141055Z AUTO 10007KT 10SM CLR 24/21 A2998 RMK AO2
KTDZ 
31nm NW 
141053Z AUTO 04005KT 10SM CLR 23/21 A3000 RMK AO2 SLP153 T02330211
KOWX 
35nm W 
141055Z AUTO 00000KT 10SM CLR 17/15 A3001 RMK AO1
KMFD 
36nm SE 
141052Z AUTO 13006KT 10SM SCT080 23/19 A3001 RMK AO2 SLP152 T02280194
KTOL 
40nm NW 
141052Z 36003KT 10SM CLR 21/17 A3000 RMK AO2 SLP152 T02060167
TAF
KFDY 
21nm W 
140911Z 1409/1506 05006KT P6SM SKC FM141300 08007KT P6SM BKN200 FM142000 07009KT P6SM BKN150 FM150000 07008KT P6SM OVC250
NOTAMs
Click for the latest NOTAMs
NOTAMs are issued by the DoD/FAA and will open in a separate window not controlled by AirNav.

 

 
 

FBO, Fuel Providers, and Aircraft Ground Support

  
 Business Name 
 
 Contact 
 
 Services / Description 
 
Fuel Prices
 
Comments
  
Tiffin Aire 419-447-4263
no information available

If you are affiliated with Tiffin Aire and would like to show here your services, contact info, web link, logo, and more, click here
100LL Jet A
FS $3.84 $3.17 
 Updated 07-Aug-2020
 
   13 read write
FS=Full service
Update Fuel Prices
 

Would you like to see your business listed on this page?

 If your business provides an interesting product or service to pilots, flight crews, aircraft, or users of the Seneca County Airport, you should consider listing it here.  To start the listing process, click on the button below
 
Add a business
 

Other Pages about Seneca County Airport

Update a link
 
Copyright © AirNav, LLC. All rights reserved. Privacy Policy  Contact